Weather History for Las Cruces, NM

Change the Weather History Date:

Wednesday, November 27, 2013

  Actual Average Record
Temperature  
Mean Temperature 35 °F -  
Max Temperature 45 °F 55 °F 64 °F (2006)
Min Temperature 25 °F 33 °F 17 °F (2010)
Degree Days  
Heating Degree Days 30    
Moisture  
Dew Point 25 °F    
Average Humidity 67    
Maximum Humidity 90    
Minimum Humidity 41    
Precipitation  
Precipitation 0.00 in - - ()
Sea Level Pressure  
Sea Level Pressure 30.31 in    
Wind  
Wind Speed 4 mph (ENE)    
Max Wind Speed 8 mph    
Max Gust Speed -    
Visibility 10 miles    
Events      
Averages and records for this station are not official NWS values.
T = Trace of Precipitation, MM = Missing Value Source: NWS Daily Summary

Daily Weather History Graph

Daily Weather History Graph

Search for Another Location

Airport:

Trip Planner

Search our weather history database for the weather conditions in past years. The results will help you decide how hot, cold, wet, or windy it might be!

Date:

Astronomy

Nov. 27, 2013 Rise Set
Actual Time 6:47 AM MST 5:02 PM MST
Civil Twilight 6:21 AM MST 5:29 PM MST
Nautical Twilight 5:51 AM MST 5:59 PM MST
Astronomical Twilight 5:21 AM MST 6:29 PM MST
Moon 1:11 AM MST (11/27) 1:25 PM MST (11/27)
Length of Visible Light 11h 08m
Length of Day
10h 15m
Waning Crescent, 31% of the Moon is Illuminated
Nov 27
Waning Crescent
Dec 2
New
Dec 9
First Quarter
Dec 17
Full
Dec 25
Last Quarter

Hourly Weather History & Observations

Time (MST) Temp. Windchill Dew Point Humidity Pressure Visibility Wind Dir Wind Speed Gust Speed Precip Events Conditions
12:15 AM 29.3 °F 25.6 °F 25.9 °F 87% 30.42 in 10.0 mi SSE 3.5 mph - N/A   Clear
12:35 AM 27.7 °F 23.8 °F 25.2 °F 90% 30.42 in 10.0 mi SE 3.5 mph - N/A   Clear
12:55 AM 31.3 °F 26.6 °F 25.5 °F 79% 30.41 in 10.0 mi SE 4.6 mph - N/A   Clear
1:15 AM 34.0 °F 31.0 °F 25.3 °F 71% 30.40 in 10.0 mi SE 3.5 mph - N/A   Clear
1:35 AM 32.0 °F 28.7 °F 24.4 °F 74% 30.40 in 10.0 mi SE 3.5 mph - N/A   Clear
1:55 AM 32.0 °F 27.5 °F 24.6 °F 74% 30.40 in 10.0 mi SE 4.6 mph - N/A   Clear
2:15 AM 33.1 °F 28.7 °F 24.6 °F 71% 30.40 in 10.0 mi ESE 4.6 mph - N/A   Clear
2:35 AM 32.4 °F 29.1 °F 24.6 °F 73% 30.40 in 10.0 mi SE 3.5 mph - N/A   Clear
2:55 AM 32.0 °F 27.5 °F 24.4 °F 74% 30.39 in 10.0 mi SE 4.6 mph - N/A   Clear
3:15 AM 28.4 °F - 23.4 °F 81% 30.38 in 10.0 mi Calm Calm - N/A   Clear
3:35 AM 27.1 °F - 22.8 °F 84% 30.38 in 10.0 mi Calm Calm - N/A   Clear
3:55 AM 26.4 °F - 22.8 °F 86% 30.38 in 10.0 mi Calm Calm - N/A   Clear
4:15 AM 25.9 °F 20.3 °F 22.8 °F 88% 30.37 in 10.0 mi ENE 4.6 mph - N/A   Clear
4:35 AM 27.0 °F 23.0 °F 22.5 °F 83% 30.37 in 10.0 mi ENE 3.5 mph - N/A   Clear
4:55 AM 30.7 °F 26.0 °F 23.7 °F 75% 30.37 in 10.0 mi ENE 4.6 mph - N/A   Clear
5:15 AM 29.7 °F 24.7 °F 23.4 °F 77% 30.37 in 10.0 mi ENE 4.6 mph - N/A   Clear
5:35 AM 32.0 °F 27.5 °F 23.9 °F 72% 30.37 in 10.0 mi ENE 4.6 mph - N/A   Clear
5:55 AM 31.6 °F 27.0 °F 23.9 °F 73% 30.37 in 10.0 mi ENE 4.6 mph - N/A   Clear
6:15 AM 32.0 °F 27.5 °F 23.9 °F 72% 30.38 in 10.0 mi ENE 4.6 mph - N/A   Clear
6:35 AM 31.8 °F 26.2 °F 24.1 °F 73% 30.37 in 10.0 mi ENE 5.8 mph - N/A   Clear
6:55 AM 31.1 °F - 23.9 °F 75% 30.38 in 10.0 mi Calm Calm - N/A   Clear
7:15 AM 29.3 °F - 24.3 °F 81% 30.38 in 10.0 mi Calm Calm - N/A   Clear
7:35 AM 30.2 °F - 26.1 °F 85% 30.38 in 10.0 mi Calm Calm - N/A   Clear
7:55 AM 30.6 °F - 27.5 °F 88% 30.38 in 10.0 mi Calm Calm - N/A   Clear
8:15 AM 33.4 °F 29.1 °F 28.8 °F 83% 30.38 in 10.0 mi ENE 4.6 mph - N/A   Clear
8:35 AM 36.0 °F 33.3 °F 28.2 °F 73% 30.38 in 10.0 mi ENE 3.5 mph - N/A   Clear
8:55 AM 36.9 °F - 28.2 °F 71% 30.40 in 10.0 mi Calm Calm - N/A   Clear
9:15 AM 37.9 °F 34.4 °F 27.0 °F 65% 30.39 in 10.0 mi East 4.6 mph - N/A   Clear
9:35 AM 38.8 °F 35.4 °F 26.6 °F 61% 30.39 in 10.0 mi East 4.6 mph - N/A   Clear
9:55 AM 39.2 °F 37.0 °F 25.2 °F 57% 30.38 in 10.0 mi East 3.5 mph - N/A   Clear
10:15 AM 39.4 °F 37.2 °F 27.3 °F 62% 30.38 in 10.0 mi East 3.5 mph - N/A   Clear
10:35 AM 39.9 °F 37.8 °F 25.5 °F 56% 30.38 in 10.0 mi East 3.5 mph - N/A   Clear
10:55 AM 40.6 °F 38.6 °F 25.0 °F 54% 30.36 in 10.0 mi East 3.5 mph - N/A   Clear
11:15 AM 41.5 °F 38.6 °F 25.0 °F 52% 30.36 in 10.0 mi ESE 4.6 mph - N/A   Clear
11:35 AM 42.6 °F 38.4 °F 24.8 °F 49% 30.34 in 10.0 mi East 6.9 mph - N/A   Clear
11:55 AM 42.4 °F 39.6 °F 24.6 °F 49% 30.32 in 10.0 mi East 4.6 mph - N/A   Clear
12:15 PM 43.0 °F 40.3 °F 25.0 °F 49% 30.31 in 10.0 mi East 4.6 mph - N/A   Clear
12:35 PM 43.5 °F 40.9 °F 24.1 °F 46% 30.30 in 10.0 mi East 4.6 mph - N/A   Clear
12:55 PM 43.3 °F 40.7 °F 24.1 °F 47% 30.28 in 10.0 mi NE 4.6 mph - N/A   Clear
1:15 PM 44.2 °F 41.8 °F 25.2 °F 47% 30.27 in 10.0 mi East 4.6 mph - N/A   Clear
1:35 PM 44.1 °F 41.5 °F 25.2 °F 47% 30.27 in 10.0 mi SE 4.6 mph - N/A   Clear
1:55 PM 45.5 °F 42.5 °F 24.1 °F 43% 30.25 in 10.0 mi East 5.8 mph - N/A   Clear
2:15 PM 44.6 °F 40.7 °F 23.7 °F 44% 30.24 in 10.0 mi ESE 6.9 mph - N/A   Clear
2:35 PM 45.1 °F 40.8 °F 23.4 °F 42% 30.24 in 10.0 mi ESE 8.1 mph - N/A   Clear
2:55 PM 45.1 °F 41.4 °F 22.8 °F 41% 30.23 in 10.0 mi SE 6.9 mph - N/A   Clear
3:15 PM 45.0 °F 40.6 °F 23.0 °F 42% 30.23 in 10.0 mi ESE 8.1 mph - N/A   Clear
3:35 PM 44.8 °F 41.6 °F 22.6 °F 42% 30.23 in 10.0 mi ESE 5.8 mph - N/A   Clear
3:55 PM 44.6 °F 41.4 °F 22.1 °F 41% 30.23 in 10.0 mi SE 5.8 mph - N/A   Clear
4:15 PM 44.6 °F 41.4 °F 23.2 °F 43% 30.22 in 10.0 mi ESE 5.8 mph - N/A   Clear
4:35 PM 43.9 °F 41.3 °F 22.8 °F 43% 30.22 in 10.0 mi East 4.6 mph - N/A   Clear
4:55 PM 43.0 °F - 24.4 °F 48% 30.23 in 10.0 mi Calm Calm - N/A   Clear
5:15 PM 41.9 °F - 25.5 °F 52% 30.23 in 10.0 mi Calm Calm - N/A   Clear
5:35 PM 40.6 °F 38.6 °F 26.4 °F 57% 30.22 in 10.0 mi NNE 3.5 mph - N/A   Clear
5:55 PM 40.1 °F 36.9 °F 26.2 °F 58% 30.22 in 10.0 mi NNE 4.6 mph - N/A   Clear
6:15 PM 40.1 °F 36.9 °F 26.8 °F 59% 30.23 in 10.0 mi NNE 4.6 mph - N/A   Clear
6:35 PM 39.2 °F - 27.3 °F 62% 30.22 in 10.0 mi Calm Calm - N/A   Clear
6:55 PM 37.8 °F 34.2 °F 27.5 °F 67% 30.22 in 10.0 mi North 4.6 mph - N/A   Clear
7:15 PM 36.5 °F 32.7 °F 27.5 °F 70% 30.23 in 10.0 mi North 4.6 mph - N/A   Clear
7:35 PM 35.6 °F 31.7 °F 27.5 °F 72% 30.23 in 10.0 mi North 4.6 mph - N/A   Clear
7:55 PM 34.9 °F 29.9 °F 28.0 °F 76% 30.23 in 10.0 mi North 5.8 mph - N/A   Clear
8:15 PM 34.7 °F 30.6 °F 27.9 °F 76% 30.24 in 10.0 mi NNW 4.6 mph - N/A   Clear
8:35 PM 34.3 °F 30.2 °F 27.3 °F 76% 30.23 in 10.0 mi NNW 4.6 mph - N/A   Clear
8:55 PM 32.9 °F 28.5 °F 26.6 °F 78% 30.23 in 10.0 mi North 4.6 mph - N/A   Clear
9:15 PM 31.1 °F 27.7 °F 26.1 °F 82% 30.23 in 10.0 mi North 3.5 mph - N/A   Clear
9:35 PM 31.6 °F - 26.1 °F 80% 30.24 in 10.0 mi Calm Calm - N/A   Clear
9:55 PM 31.6 °F 28.3 °F 25.7 °F 79% 30.24 in 10.0 mi NNE 3.5 mph - N/A   Clear
10:15 PM 30.0 °F 26.5 °F 25.2 °F 82% 30.23 in 10.0 mi NNE 3.5 mph - N/A   Clear
10:35 PM 30.2 °F 25.4 °F 24.8 °F 80% 30.22 in 10.0 mi NNE 4.6 mph - N/A   Clear
10:55 PM 32.0 °F 26.4 °F 25.2 °F 76% 30.22 in 10.0 mi NNE 5.8 mph - N/A   Clear
11:15 PM 31.1 °F 25.4 °F 24.8 °F 77% 30.22 in 10.0 mi North 5.8 mph - N/A   Clear
11:35 PM 30.2 °F 24.3 °F 25.0 °F 81% 30.21 in 10.0 mi North 5.8 mph - N/A   Clear
11:55 PM 28.2 °F 22.0 °F 24.8 °F 87% 30.21 in 10.0 mi North 5.8 mph - N/A   Clear